Simultaneous Nadir Overpasses (SNOs) Predictions

Prediction of SNOs between NOAA-19 and NPP Satellite Orbit:

Table of predicted SNOs for the next 14.0 days since TLE Epoch: 9/28/2012
Index Date (NOAA-19) Time (NOAA-19) NOAA-19 Lat,Lon Date (NPP) Time (NPP) NPP Lat,Lon Distance(km) Time Diff (sec)
1 10/09/2012 10:34:02 80.79, -28.41 10/09/2012 10:35:17 80.79, -28.26 2.68 75
2 10/09/2012 11:25:07 -80.79, 138.91 10/09/2012 11:26:02 -80.79, 139.08 3.12 55
3 10/09/2012 12:16:03 80.72, -52.50 10/09/2012 12:16:44 80.73, -52.66 2.92 41
4 10/09/2012 13:07:06 -80.68, 115.50 10/09/2012 13:07:27 -80.69, 115.37 2.38 21
5 10/09/2012 13:58:05 80.67, -76.96 10/09/2012 13:58:11 80.67, -77.06 1.92 6
6 10/09/2012 14:49:08 -80.62, 91.03 10/09/2012 14:48:54 -80.63, 90.95 1.38 14
7 10/09/2012 15:40:07 80.61,-101.43 10/09/2012 15:39:38 80.61,-101.48 0.91 29
8 10/09/2012 16:31:10 -80.56, 66.54 10/09/2012 16:30:21 -80.56, 66.52 0.37 49




NCC Satellite Simultaneous Nadir Overpasses (SNOs) Prediction Service
